Tracking 29034 objects as of 24-Jun-2024
HD Live streaming from Space Station
objects crossing your sky now

BREEZE-M R/B

Track BREEZE-M R/B now!


NORAD ID: 33280
Int'l Code: 2008-039C
Perigee: 4,213.8 km
Apogee: 36,011.4 km
Inclination: 21.9 °
Period: 714.9 minutes
Semi major axis: 26483 km
RCS: 8.2222 m2 (large)
Launch date: August 18, 2008
Source: Commonwealth of Independent States (former USSR) (CIS)
Launch site: TYURATAM MISSILE AND SPACE COMPLEX (TTMTR)

Note: This is a ROCKET BODY
Your satellite tracking list
Your tracking list is empty




NASA's NSSDC Master Catalog

Two Line Element Set (TLE):
1 33280U 08039C   24175.95753096  .00000063  00000-0  00000-0 0  9998
2 33280  21.9279 115.8391 6003272 156.1444 250.5123  2.01436146116554
Source of the keplerian elements: AFSPC